This is the latest recevied weather packets stored in our database for station/object K7FRY. If no packets are shown the sender has not sent any weather packets the latest 10 day(s).
| Time | Temp. | Humidity | Pressure | Rain* | Wind** | Luminosity | Snow |
|---|---|---|---|---|---|---|---|
| 1778071360 | 10° C | 71% | 1016.9 hPa | 0 mm | - | 8 W/m² | - |
| 1778071058 | 10° C | 72% | 1017.1 hPa | 0 mm | - | 4 W/m² | - |
| 1778070756 | 10.56° C | 71% | 1016.9 hPa | 0 mm | - | 2 W/m² | - |
| 1778070453 | 10.56° C | 71% | 1016.8 hPa | 0 mm | - | 1 W/m² | - |
| 1778070150 | 10.56° C | 71% | 1016.9 hPa | 0 mm | - | 0 W/m² | - |
| 1778069848 | 10.56° C | 71% | 1016.8 hPa | 0 mm | - | 0 W/m² | - |
| 1778069545 | 10.56° C | 71% | 1016.8 hPa | 0 mm | - | 0 W/m² | - |
| 1778069242 | 10.56° C | 71% | 1016.8 hPa | 0 mm | - | 0 W/m² | - |
| 1778068940 | 10° C | 71% | 1016.7 hPa | 0 mm | - | 0 W/m² | - |
| 1778068637 | 10.56° C | 71% | 1016.9 hPa | 0 mm | - | 0 W/m² | - |
| 1778068335 | 10.56° C | 70% | 1016.8 hPa | 0 mm | - | 0 W/m² | - |
| 1778068033 | 11.11° C | 68% | 1016.5 hPa | 0 mm | - | 0 W/m² | - |
| 1778067730 | 10.56° C | 71% | 1016.7 hPa | 0 mm | - | 0 W/m² | - |
| 1778067428 | 10° C | 73% | 1016.6 hPa | 0 mm | - | 0 W/m² | - |
| 1778067126 | 10° C | 72% | 1016.6 hPa | 0 mm | - | 0 W/m² | - |
| 1778066822 | 10.56° C | 70% | 1016.8 hPa | 0 mm | - | 0 W/m² | - |
| 1778066520 | 10° C | 72% | 1016.5 hPa | 0 mm | - | 0 W/m² | - |
| 1778066217 | 9.44° C | 74% | 1016.9 hPa | 0 mm | - | 0 W/m² | - |
| 1778065914 | 10° C | 75% | 1016.7 hPa | 0 mm | - | 0 W/m² | - |
| 1778065611 | 10° C | 73% | 1016.6 hPa | 0 mm | - | 0 W/m² | - |
| 1778065309 | 10.56° C | 71% | 1016.4 hPa | 0 mm | - | 0 W/m² | - |
| 1778065005 | 10.56° C | 69% | 1016.4 hPa | 0 mm | - | 0 W/m² | - |
| 1778064702 | 11.11° C | 68% | 1016.5 hPa | 0 mm | - | 0 W/m² | - |
| 1778064401 | 11.11° C | 67% | 1016.3 hPa | 0 mm | - | 0 W/m² | - |
| 1778064098 | 11.11° C | 69% | 1016.1 hPa | 0 mm | - | 0 W/m² | - |
* Rain latest hour (hover to see other rain measurements)
** Current wind speed in m/s (hover to see current wind gust speed)